Flag for Canada Weather past 2 weeks in Nelson, British Columbia, Canada

Now
34 °F

Chilly.


Feels Like: 34 °F
Forecast: 17 / 23 °F
Wind: 2 mph from Southeast

Location: Nelson

Current Time: Feb 1, 2015 at 4:22:53 AM

Latest Report: Feb 1, 2015 at 4:00 AM


Visibility: N/A

Pressure: 30.29 "Hg

Humidity: 78%

Dew point: 28 °F

Location of NelsonLocation

Historic Weather in Nelson — Graph

°F

Nelson temperature yesterday

Maximum temperature yesterday: 44 °F (at 2:00 PM)
Minimum temperature yesterday: 31 °F (at 5:00 PM)
Average temperature yesterday: 35 °F

Past Weeks' High & Low Weather Summary

 TemperatureHumidityPressure
High46 °F (Jan 29, 1:00 PM)100% (Jan 18, 8:00 PM)30.57 "Hg (Jan 18, 8:00 PM)
Low24 °F (Jan 21, 6:00 AM)59% (Jan 31, 2:00 PM)29.80 "Hg (Jan 18, 5:00 AM)
Average35 °F88%30.31 "Hg
* Reported Jan 17 3:00 AM — Feb 1 3:00 AM, Nelson, Weather by CustomWeather, © 2014

Note: Actual official high and low records may vary slightly from our data, if they occured in-between our weather recording intervals... More about our weather records

Advertising

Nelson weather history for previous 24 hours

 ConditionsComfort  
Time TempWeatherWind HumidityBarometerVisibility
3:00 AM
Feb 1
34 °FChilly.6 mph78%30.31 "HgN/A
2:00 AM35 °FChilly.6 mph76%30.31 "HgN/A
1:00 AM36 °FChilly.3 mph75%30.32 "HgN/A
12:00 AM34 °FChilly.2 mph81%30.32 "HgN/A
11:00 PM
Jan 31
33 °FChilly.2 mph79%30.35 "HgN/A
10:00 PM32 °FChilly.1 mph86%30.36 "HgN/A
9:00 PM32 °FChilly.3 mph86%30.35 "HgN/A
8:00 PM32 °FChilly.2 mph91%30.34 "HgN/A
7:00 PM33 °FChilly.2 mph81%30.34 "HgN/A
6:00 PM33 °FChilly.1 mph87%30.33 "HgN/A
5:00 PM31 °FChilly.3 mph92%30.31 "HgN/A
4:00 PM35 °FChilly.3 mph75%30.29 "HgN/A
3:00 PM37 °FChilly.1 mph76%30.29 "HgN/A
2:00 PM44 °FQuite cool.2 mph59%30.28 "HgN/A
1:00 PM42 °FQuite cool.7 mph63%30.28 "HgN/A
12:00 PM41 °FQuite cool.6 mph66%30.29 "HgN/A
11:00 AM37 °FChilly.12 mph70%30.32 "HgN/A
10:00 AM36 °FChilly.10 mph76%30.32 "HgN/A
9:00 AM35 °FChilly.10 mph82%30.32 "HgN/A
8:00 AM33 °FChilly.7 mph85%30.31 "HgN/A
7:00 AM32 °FChilly.7 mph90%30.30 "HgN/A
6:00 AM33 °FChilly.6 mph84%30.29 "HgN/A
5:00 AM34 °FChilly.10 mph81%30.26 "HgN/A
4:00 AM34 °FChilly.8 mph83%30.25 "HgN/A
Weather by CustomWeather, © 2014

See weather overviewHow to use our weather pages